Date,TemperatureHighF,TemperatureAvgF,TemperatureLowF,DewpointHighF,DewpointAvgF,DewpointLowF,HumidityHigh,HumidityAvg,HumidityLow,PressureMaxIn,PressureMinIn,WindSpeedMaxMPH,WindSpeedAvgMPH,GustSpeedMaxMPH,PrecipitationSumIn
2013-1-1,36,32,20,27,18,6,72,58,46,29.98,29.79,17,3,17,0.00
2013-1-2,32,21,13,15,9,4,76,60,43,30.15,29.95,17,1,17,0.00
2013-1-3,25,17,7,13,1,-10,66,50,22,30.19,30.04,11,1,11,0.00
2013-1-4,38,31,23,24,20,12,77,64,47,30.04,29.88,22,3,22,0.00
2013-1-5,42,33,24,24,20,18,85,61,40,30.30,29.92,19,2,19,0.00
2013-1-6,42,33,24,32,28,20,100,83,59,30.27,29.97,20,1,20,0.02
2013-1-7,41,33,21,30,23,15,93,68,37,30.44,30.01,13,1,13,0.00
2013-1-8,47,35,20,31,27,18,99,75,50,30.42,30.33,28,2,28,0.00
2013-1-9,45,36,24,38,31,24,100,84,58,30.43,30.07,9,2,25,0.01
2013-1-10,46,39,32,32,24,22,70,56,37,30.57,30.12,9,2,22,0.00
2013-1-11,40,34,26,40,29,22,100,82,62,30.57,30.24,4,0,4,0.22
2013-1-12,44,42,39,44,42,39,100,100,100,30.25,30.15,5,0,5,0.03
2013-1-13,54,48,42,53,48,42,100,99,93,30.19,30.05,17,1,17,0.01
2013-1-14,60,51,38,56,44,29,100,80,42,30.29,29.94,15,1,15,0.03
2013-1-15,42,37,34,36,30,25,100,75,56,30.35,30.25,7,0,7,0.07
2013-1-16,40,36,33,36,33,24,99,90,57,30.27,29.84,8,0,8,0.44
2013-1-17,43,38,33,34,28,16,95,70,49,30.12,29.89,16,2,16,0.00
2013-1-18,33,25,21,18,3,-7,57,39,23,30.52,30.08,15,2,15,0.00
2013-1-19,47,39,22,34,26,5,73,59,44,30.44,29.93,33,3,33,0.00
2013-1-20,54,43,29,36,26,6,76,52,26,29.97,29.61,31,4,31,0.00
2013-1-21,31,28,23,25,12,3,91,55,31,30.15,29.80,12,1,13,0.04
2013-1-22,28,21,14,24,5,-8,89,53,26,30.14,29.80,14,3,18,0.00
2013-1-23,17,12,8,3,-7,-14,62,41,28,30.21,30.13,21,3,21,0.00
2013-1-24,20,12,4,-7,-10,-14,56,36,23,30.29,30.14,19,3,19,0.00
2013-1-25,27,18,10,15,-5,-13,81,36,19,30.37,30.08,16,1,16,0.01
2013-1-26,27,19,13,15,4,-10,82,53,26,30.29,30.04,15,2,15,0.00
2013-1-27,32,22,13,3,0,-3,61,39,23,30.51,30.29,16,2,16,0.00
2013-1-28,34,29,22,31,15,-2,100,62,27,30.50,30.03,12,0,12,0.06
2013-1-29,40,35,30,36,32,28,95,89,84,30.22,30.03,5,0,5,0.07
2013-1-30,60,51,38,59,50,34,100,96,85,30.18,29.48,29,3,29,0.04
2013-1-31,62,49,31,60,36,10,100,66,30,29.66,29.04,42,7,42,0.65
2013-2-1,34,28,22,15,8,1,54,42,27,30.15,29.66,27,4,27,0.00
2013-2-2,32,23,20,14,6,2,59,47,30,30.30,30.09,20,2,20,0.00
2013-2-3,33,28,24,23,20,14,82,71,55,30.10,29.77,10,0,11,0.00
2013-2-4,31,26,23,22,10,1,80,52,30,30.00,29.77,20,3,20,0.00
2013-2-5,30,26,24,25,17,8,89,67,44,30.07,29.97,5,0,5,0.01
2013-2-6,40,33,27,28,19,2,87,60,31,30.35,29.95,14,1,14,0.00
2013-2-7,32,27,20,13,4,0,58,39,25,30.57,30.33,10,0,10,0.00
2013-2-8,33,31,26,33,29,0,100,92,56,30.52,29.59,28,7,28,0.56
2013-2-9,31,29,16,31,27,0,100,92,62,30.25,29.59,16,10,16,0.00
2013-2-10,40,25,14,24,9,0,73,53,21,30.44,30.25,10,1,10,0.07
2013-2-11,48,37,21,48,34,10,100,87,62,30.40,29.64,17,1,17,0.25
2013-2-12,46,41,34,43,30,25,98,65,45,29.94,29.65,19,3,19,0.00
2013-2-13,45,38,31,31,25,20,75,61,41,29.91,29.71,12,1,12,0.00
2013-2-14,46,37,31,32,24,16,91,61,31,30.04,29.74,10,0,10,0.01
2013-2-15,52,42,31,37,34,26,92,75,52,30.05,29.95,17,1,17,0.00
2013-2-16,40,36,32,36,32,20,97,85,61,29.97,29.69,11,0,11,0.01
2013-2-17,32,23,16,25,10,-3,94,61,28,29.76,29.44,24,6,24,0.08
2013-2-18,32,23,15,3,-1,-7,50,35,21,30.23,29.76,22,5,22,0.00
2013-2-19,50,38,24,46,27,1,100,66,34,30.23,29.61,17,1,17,0.38
2013-2-20,43,33,26,42,19,7,96,57,32,29.84,29.58,28,4,28,0.00
2013-2-21,34,29,25,16,13,9,64,52,38,30.24,29.84,21,4,21,0.00
2013-2-22,40,33,26,26,21,16,74,61,45,30.41,30.24,13,1,13,0.00
2013-2-23,39,36,33,35,30,25,100,82,62,30.36,29.90,8,1,8,0.37
2013-2-24,38,36,34,38,35,32,100,98,95,29.92,29.69,12,1,12,0.24
2013-2-25,43,38,33,34,32,29,96,79,61,30.28,29.92,12,0,12,0.00
2013-2-26,44,39,36,34,30,25,85,70,50,30.36,30.15,11,1,11,0.00
2013-2-27,43,41,36,43,41,31,100,99,80,30.15,29.60,17,4,17,1.65
2013-2-28,49,42,37,41,38,34,99,87,69,29.67,29.55,6,0,6,0.00
2013-3-1,49,42,35,36,31,26,94,67,43,29.71,29.55,7,1,11,0.00
2013-3-2,44,40,36,30,27,25,71,61,51,29.72,29.66,10,1,10,0.00
2013-3-3,45,38,33,31,27,23,89,67,47,29.68,29.59,11,1,11,0.00
2013-3-4,42,35,29,28,22,19,81,60,45,29.78,29.64,18,4,18,0.00
2013-3-5,48,39,31,34,27,21,82,62,47,30.10,29.78,13,2,13,0.00
2013-3-6,41,38,36,38,34,29,100,88,66,30.08,30.00,34,7,34,0.02
2013-3-7,36,33,32,35,32,28,100,93,82,30.02,29.96,19,6,26,0.04
2013-3-8,39,34,31,34,30,23,99,87,54,30.15,29.94,18,4,18,0.09
2013-3-9,48,39,33,31,25,18,89,58,38,30.37,30.14,17,2,17,0.00
2013-3-10,50,38,32,34,32,30,93,77,49,30.44,30.34,10,1,10,0.00
2013-3-11,54,43,36,43,39,33,100,86,58,30.37,30.19,16,1,16,0.00
2013-3-12,55,49,41,54,49,41,100,99,88,30.19,29.76,17,1,17,0.60
2013-3-13,53,44,32,52,31,18,100,63,31,29.82,29.74,21,2,21,0.01
2013-3-14,36,31,23,26,15,5,79,52,31,29.89,29.77,24,3,24,0.00
2013-3-15,43,32,22,29,13,0,81,49,20,29.92,29.70,26,3,26,0.00
2013-3-16,41,35,27,27,14,4,73,45,24,29.90,29.74,16,1,16,0.00
2013-3-17,40,33,25,19,10,-3,70,41,17,30.34,29.90,18,2,18,0.00
2013-3-18,38,30,22,30,9,-5,99,42,23,30.50,30.24,9,1,9,0.01
2013-3-19,38,34,29,38,34,29,100,99,93,30.24,29.60,18,3,18,0.68
2013-3-20,41,35,29,31,21,15,93,59,36,29.85,29.72,21,3,21,0.00
2013-3-21,38,34,29,29,24,18,82,67,51,29.86,29.64,11,0,11,0.00
2013-3-22,43,36,28,27,18,12,76,50,31,29.80,29.65,21,3,21,0.00
2013-3-23,46,38,31,26,19,12,73,49,27,29.84,29.70,26,4,26,0.00
2013-3-24,51,41,32,29,22,18,66,49,28,29.87,29.74,14,2,14,0.00
2013-3-25,45,39,35,34,29,22,90,67,42,29.79,29.51,24,3,24,0.00
2013-3-26,49,41,36,33,26,20,86,55,34,29.82,29.53,12,1,12,0.00
2013-3-27,55,43,30,31,22,18,65,45,26,29.89,29.78,14,2,14,0.00
2013-3-28,49,43,37,36,32,27,94,68,45,30.06,29.89,17,1,17,0.00
2013-3-29,58,48,38,39,31,23,83,54,27,30.08,30.00,12,1,12,0.00
2013-3-30,59,48,38,33,23,9,70,41,15,30.13,30.03,13,1,13,0.00
2013-3-31,60,45,29,46,29,19,100,58,20,30.15,29.73,19,2,19,0.10
2013-4-1,63,48,34,48,40,12,100,75,37,29.84,29.55,31,4,31,0.19
2013-4-2,43,35,28,18,12,3,62,40,22,30.02,29.84,21,3,22,0.00
2013-4-3,46,37,30,16,12,7,55,36,21,30.22,30.00,24,4,24,0.00
2013-4-4,56,41,27,32,18,7,81,43,17,30.36,30.11,17,2,17,0.00
2013-4-5,62,47,38,35,27,12,81,52,18,30.11,29.66,16,2,16,0.00
2013-4-6,49,40,32,27,12,-2,66,35,12,30.37,29.91,18,2,18,0.00
2013-4-7,55,42,26,44,30,18,89,64,29,30.36,30.06,25,2,25,0.00
2013-4-8,70,54,44,47,43,33,100,70,27,30.13,30.00,12,1,12,0.00
2013-4-9,77,60,46,55,45,35,100,64,27,30.12,29.87,26,2,26,0.00
2013-4-10,69,54,46,50,47,45,100,81,49,30.03,29.88,10,1,10,0.42
2013-4-11,54,49,46,49,44,33,100,84,57,30.15,29.84,12,1,13,0.00
2013-4-12,46,41,38,40,36,28,100,84,60,30.17,29.78,20,4,20,0.44
2013-4-13,56,45,37,40,36,32,100,74,43,29.97,29.75,15,2,17,0.01
2013-4-14,55,47,39,40,32,22,87,59,29,30.25,29.95,16,1,16,0.00
2013-4-15,56,45,35,41,32,25,96,61,37,30.44,30.25,8,0,8,0.00
2013-4-16,64,51,35,51,44,35,100,78,48,30.44,30.13,25,2,25,0.00
2013-4-17,70,58,44,55,42,26,96,61,21,30.35,30.11,26,1,26,0.01
2013-4-18,61,50,38,48,38,28,100,67,30,30.44,30.19,14,1,14,0.00
2013-4-19,72,62,51,66,60,48,100,94,75,30.19,29.72,28,4,28,0.02
2013-4-20,63,55,45,63,43,26,100,69,35,30.25,29.65,26,3,26,0.43
2013-4-21,55,44,34,32,23,15,80,46,24,30.71,30.25,13,1,13,0.00
2013-4-22,53,44,33,35,31,23,93,64,32,30.76,30.61,18,3,18,0.00
2013-4-23,44,42,40,43,40,32,100,94,73,30.61,30.11,18,3,18,0.01
2013-4-24,74,54,42,51,45,40,100,76,30,30.11,29.85,18,2,18,0.00
2013-4-25,66,56,46,54,35,17,100,54,18,30.29,29.88,18,2,18,0.02
2013-4-26,65,52,40,42,34,22,91,51,29,30.44,30.29,11,1,11,0.00
2013-4-27,63,50,36,45,38,30,100,68,31,30.44,30.35,8,0,8,0.00
2013-4-28,67,53,37,45,34,19,100,56,21,30.37,30.27,12,0,12,0.00
2013-4-29,66,55,45,49,38,20,100,60,19,30.31,30.25,10,0,10,0.00
2013-4-30,70,55,40,41,30,14,83,43,15,30.39,30.28,8,0,8,0.00
2013-5-1,71,54,36,47,38,28,92,59,28,30.50,30.39,10,0,10,0.00
2013-5-2,77,58,40,49,41,36,100,61,25,30.49,30.36,14,1,14,0.00
2013-5-3,61,51,42,45,41,37,91,70,54,30.52,30.40,19,2,19,0.00
2013-5-4,63,51,39,46,38,25,100,65,25,30.40,30.31,19,2,19,0.00
2013-5-5,64,50,37,46,41,36,100,74,38,30.35,30.25,12,1,12,0.00
2013-5-6,72,56,45,52,47,42,98,75,43,30.32,30.18,10,0,10,0.00
2013-5-7,76,60,42,62,53,42,100,80,50,30.21,30.13,12,0,12,0.00
2013-5-8,71,62,55,66,61,55,100,95,78,30.21,30.06,12,0,12,0.08
2013-5-9,71,61,58,64,60,58,100,97,70,30.06,29.89,8,0,8,0.29
2013-5-10,82,68,54,64,57,51,100,72,36,29.98,29.92,13,0,13,0.00
2013-5-11,72,62,57,65,61,55,100,95,70,29.95,29.72,21,1,21,0.17
2013-5-12,74,62,50,63,53,28,100,77,39,29.86,29.60,19,1,19,0.03
2013-5-13,62,52,42,36,31,25,74,46,27,30.06,29.86,17,1,17,0.00
2013-5-14,60,50,39,35,31,25,83,52,28,30.09,30.01,12,0,12,0.00
2013-5-15,65,52,36,55,42,29,100,74,28,30.10,29.72,20,1,21,0.01
2013-5-16,84,67,50,55,47,35,100,57,20,29.82,29.67,20,1,20,0.01
2013-5-17,73,60,49,53,44,37,89,59,29,30.25,29.82,12,0,12,0.00
2013-5-18,75,60,43,51,45,34,100,64,25,30.33,30.25,18,1,18,0.00
2013-5-19,72,59,47,57,52,47,100,81,46,30.37,30.24,15,1,15,0.12
2013-5-20,84,69,56,69,64,56,100,84,51,30.24,29.93,15,1,15,0.03
2013-5-21,90,70,53,71,64,53,100,85,49,30.01,29.83,16,1,16,0.07
2013-5-22,76,62,52,68,60,52,100,94,76,30.03,29.89,11,0,11,0.04
2013-5-23,78,68,62,70,66,62,100,95,73,29.94,29.84,28,2,28,0.06
2013-5-24,70,63,50,68,63,50,100,100,93,29.84,29.69,17,0,17,0.58
2013-5-25,54,48,42,54,48,40,100,99,93,29.83,29.75,8,0,8,0.25
2013-5-26,62,50,42,48,42,38,98,75,46,30.17,29.79,17,1,17,0.02
2013-5-27,74,60,40,47,40,32,100,55,23,30.19,30.11,17,1,17,0.00
2013-5-28,76,62,44,59,48,40,100,67,29,30.26,30.19,13,0,13,0.00
2013-5-29,76,65,58,68,63,58,100,93,74,30.22,30.02,18,0,18,0.58
2013-5-30,91,78,63,74,68,63,100,76,45,30.12,30.03,14,0,14,0.21
2013-5-31,95,82,66,74,67,60,100,65,35,30.11,29.97,20,1,20,0.00
2013-6-1,91,79,67,71,67,63,97,69,43,30.01,29.91,22,2,22,0.00
2013-6-2,88,76,67,72,68,65,98,77,50,29.93,29.81,37,2,37,0.00
2013-6-3,75,68,65,71,67,60,100,96,81,29.87,29.80,10,0,10,0.31
2013-6-4,74,64,50,59,47,41,92,57,37,30.10,29.85,12,0,12,0.00
2013-6-5,77,63,48,55,48,41,100,63,31,30.22,30.10,15,0,15,0.00
2013-6-6,74,62,50,60,54,49,100,76,46,30.22,30.11,13,0,13,0.01
2013-6-7,61,57,55,61,57,55,100,100,96,30.11,29.79,13,1,13,2.46
2013-6-8,80,65,54,67,60,54,100,87,58,30.03,29.61,17,0,17,0.55
2013-6-9,82,70,58,63,59,53,100,71,39,30.19,30.03,12,0,12,0.00
2013-6-10,72,64,56,67,61,56,100,92,63,30.21,30.00,8,0,8,0.59
2013-6-11,76,63,58,69,63,58,100,98,77,30.00,29.55,17,0,17,0.99
2013-6-12,72,64,57,61,57,52,100,78,54,29.84,29.60,13,0,13,0.01
2013-6-13,65,58,51,61,56,51,100,95,80,29.84,29.68,16,1,16,0.27
2013-6-14,71,60,52,59,54,49,100,83,57,29.80,29.61,8,2,20,1.03
2013-6-15,80,69,57,56,51,40,86,56,27,29.98,29.80,8,0,8,0.00
2013-6-16,78,68,53,66,58,51,100,73,42,29.98,29.75,18,1,18,0.00
2013-6-17,87,74,61,67,64,58,100,74,40,29.93,29.81,18,1,18,0.03
2013-6-18,84,66,59,67,61,59,100,86,44,29.96,29.86,11,0,16,0.31
2013-6-19,76,65,55,60,55,45,100,74,35,30.18,29.91,12,0,12,0.02
2013-6-20,81,68,52,61,54,45,100,67,30,30.29,30.18,14,1,14,0.00
2013-6-21,85,72,57,68,60,55,100,70,49,30.30,30.22,18,1,18,0.00
2013-6-22,86,73,63,64,58,52,93,61,36,30.26,30.16,17,1,17,0.00
2013-6-23,90,77,63,73,68,61,99,76,47,30.20,30.05,20,2,20,0.00
2013-6-24,94,81,69,76,73,69,100,80,51,30.06,29.90,17,1,19,0.01
2013-6-25,93,79,66,76,71,66,100,79,43,29.96,29.76,17,1,17,0.00
2013-6-26,89,78,71,75,72,69,100,84,53,29.86,29.74,15,0,15,0.01
2013-6-27,74,69,66,72,68,66,100,98,90,29.87,29.75,7,0,7,0.00
2013-6-28,81,73,66,75,71,66,100,95,77,29.75,29.52,20,1,20,0.01
2013-6-29,83,74,70,73,71,67,100,89,63,29.75,29.52,21,1,21,0.00
2013-6-30,83,75,71,76,72,69,100,93,76,29.96,29.75,17,1,17,0.14
2013-7-1,83,74,71,77,73,71,100,97,80,30.11,29.96,17,1,17,0.15
2013-7-2,84,76,72,76,74,72,100,93,73,30.22,30.11,13,1,13,0.00
2013-7-3,89,78,72,77,74,71,100,86,62,30.24,30.18,18,2,21,0.00
2013-7-4,93,83,74,78,76,74,100,81,58,30.23,30.13,19,1,19,0.00
2013-7-5,95,84,75,78,75,72,98,76,50,30.19,30.07,13,1,21,0.00
2013-7-6,94,84,76,79,76,71,97,77,50,30.10,29.99,13,1,13,0.00
2013-7-7,96,83,72,79,75,72,100,78,53,30.04,29.92,14,0,14,0.00
2013-7-8,92,82,71,76,73,69,100,76,50,30.05,29.92,16,1,16,0.00
2013-7-9,79,72,67,73,70,67,100,95,79,30.11,30.04,16,0,16,0.12
2013-7-10,85,77,71,78,74,71,100,93,74,30.07,29.82,16,0,16,0.00
2013-7-11,80,76,71,77,75,71,100,96,82,29.93,29.80,12,0,12,0.42
2013-7-12,76,71,68,71,66,60,100,83,69,30.20,29.92,16,2,16,0.00
2013-7-13,78,72,66,77,71,65,100,98,87,30.32,30.20,7,0,7,0.09
2013-7-14,92,80,73,78,75,71,100,87,51,30.32,30.21,11,0,14,0.00
2013-7-15,94,84,74,79,75,71,100,78,50,30.22,30.11,7,0,7,0.00
2013-7-16,93,83,71,75,72,66,98,71,44,30.17,30.11,10,0,10,0.00
2013-7-17,95,83,72,78,73,68,100,76,43,30.19,30.04,14,0,14,0.00
2013-7-18,97,86,76,79,75,70,90,72,43,30.05,29.94,12,0,12,0.00
2013-7-19,98,86,78,80,77,75,96,76,51,29.96,29.76,21,2,21,0.00
2013-7-20,94,83,73,80,77,73,100,86,54,29.82,29.67,14,1,18,0.29
2013-7-21,86,76,67,73,69,67,100,83,54,30.00,29.82,7,0,7,0.01
2013-7-22,86,76,67,73,71,67,100,84,56,30.01,29.88,9,0,9,0.00
2013-7-23,86,76,72,80,75,72,100,95,72,29.87,29.55,18,0,22,0.28
2013-7-24,88,78,71,78,71,60,100,80,59,29.93,29.59,8,0,8,0.00
2013-7-25,72,62,59,61,58,52,100,86,66,30.10,29.93,14,1,14,0.00
2013-7-26,72,64,60,70,64,60,100,99,90,30.05,29.96,10,0,10,0.00
2013-7-27,86,74,63,71,66,60,100,80,43,30.08,30.02,14,1,14,0.00
2013-7-28,87,74,68,74,70,66,100,86,52,30.03,29.97,10,0,10,0.00
2013-7-29,85,76,70,76,72,66,100,89,67,30.06,29.99,14,0,14,0.00
2013-7-30,83,73,63,66,62,58,93,70,44,30.12,30.05,10,0,11,0.00
2013-7-31,84,72,60,66,62,58,100,72,42,30.15,30.06,9,0,9,0.00
2013-8-1,82,70,62,69,65,59,100,84,55,30.08,29.90,12,0,12,0.00
2013-8-2,65,65,65,65,65,65,100,100,100,29.90,29.88,0,0,0,0.00
2013-8-3,78,71,65,69,66,63,100,86,65,29.90,29.82,4,1,14,0.03
2013-8-4,82,70,58,64,59,56,100,73,43,29.91,29.80,3,0,13,0.00
2013-8-5,77,66,56,58,53,40,98,66,28,30.07,29.91,11,0,11,0.00
2013-8-6,81,67,51,59,53,47,100,67,34,30.17,30.07,17,0,17,0.00
2013-8-7,80,68,55,65,57,46,100,74,32,30.21,30.15,10,0,10,0.00
2013-8-8,80,73,65,73,69,61,100,90,79,30.15,30.04,14,1,14,0.03
2013-8-9,75,74,71,75,73,71,100,99,95,30.07,29.80,13,1,13,1.85
2013-8-10,84,74,63,74,65,51,100,75,48,30.04,29.82,12,0,12,0.00
2013-8-11,81,69,54,63,56,50,100,67,36,30.11,30.03,10,0,10,0.00
2013-8-12,84,72,63,68,63,58,100,77,43,30.06,29.94,10,0,10,0.00
2013-8-13,75,68,63,72,66,62,100,95,68,29.95,29.71,6,0,6,0.01
2013-8-14,74,67,60,66,57,52,100,73,47,30.00,29.70,16,0,16,0.00
2013-8-15,78,66,53,58,55,46,100,71,37,30.15,30.00,9,0,11,0.00
2013-8-16,82,68,54,62,57,52,100,72,37,30.22,30.14,12,0,12,0.00
2013-8-17,81,70,57,64,59,56,100,72,43,30.30,30.22,10,0,10,0.00
2013-8-18,81,68,59,66,61,52,100,81,40,30.29,30.12,7,0,7,0.01
2013-8-19,82,70,58,67,63,58,100,80,49,30.12,29.99,10,0,10,0.00
2013-8-20,87,75,64,68,65,54,100,74,34,30.12,30.00,10,0,10,0.00
2013-8-21,89,75,62,70,66,62,100,75,43,30.17,30.05,10,0,10,0.00
2013-8-22,85,74,67,75,71,66,100,91,70,30.07,29.86,18,1,18,0.00
2013-8-23,80,72,62,72,64,54,100,76,43,30.12,29.84,12,0,12,0.00
2013-8-24,76,65,55,60,50,38,97,63,27,30.37,30.13,13,1,13,0.00
2013-8-25,84,68,52,64,54,45,100,68,27,30.39,30.22,10,0,10,0.00
2013-8-26,80,72,66,70,64,59,100,78,60,30.22,29.92,14,1,14,0.05
2013-8-27,80,72,66,73,70,66,100,93,69,29.92,29.84,10,0,10,0.74
2013-8-28,87,73,62,71,67,62,100,85,53,29.95,29.86,10,0,10,0.00
2013-8-29,69,65,62,69,64,60,100,98,91,30.08,29.95,12,2,12,0.01
2013-8-30,82,69,60,71,66,60,100,90,65,30.06,29.87,10,0,10,0.00
2013-8-31,81,74,69,75,73,69,100,94,80,29.87,29.83,13,1,13,0.00
2013-9-1,82,74,69,77,73,69,100,97,81,29.90,29.83,14,0,14,0.54
2013-9-2,77,73,70,77,73,70,100,100,100,29.88,29.73,13,0,13,0.38
2013-9-3,80,72,67,75,71,67,100,97,78,29.82,29.71,12,0,12,0.08
2013-9-4,81,68,58,63,61,57,100,80,48,29.95,29.84,13,0,13,0.00
2013-9-5,71,63,53,68,59,51,100,88,57,30.16,29.90,14,0,14,0.09
2013-9-6,68,56,46,53,47,39,100,76,36,30.28,30.14,8,0,8,0.00
2013-9-7,78,64,47,60,53,47,100,72,39,30.14,29.90,13,1,13,0.00
2013-9-8,79,66,51,67,56,41,99,72,36,30.12,29.77,13,0,13,0.00
2013-9-9,70,57,44,53,47,42,100,72,39,30.27,30.12,12,0,12,0.00
2013-9-10,75,67,56,72,65,52,100,93,86,30.20,30.08,26,1,26,0.00
2013-9-11,94,80,69,80,74,69,100,85,55,30.11,29.99,16,1,16,0.00
2013-9-12,86,76,69,76,72,69,100,89,62,30.00,29.70,20,1,20,0.38
2013-9-13,80,70,61,72,67,59,100,91,63,29.78,29.59,8,0,8,0.09
2013-9-14,70,60,52,60,55,52,100,84,59,30.09,29.78,7,0,7,0.00
2013-9-15,72,59,48,56,52,48,100,80,46,30.20,30.09,6,0,10,0.00
2013-9-16,67,59,50,60,55,38,100,87,61,30.27,30.05,11,0,11,0.03
2013-9-17,61,51,42,47,40,34,100,68,37,30.46,30.27,19,1,19,0.00
2013-9-18,74,56,41,54,46,41,100,74,35,30.38,30.18,10,0,10,0.00
2013-9-19,80,62,47,58,53,47,100,76,36,30.18,30.07,9,0,9,0.00
2013-9-20,82,63,49,61,55,49,100,80,35,30.11,30.02,10,0,10,0.00
2013-9-21,76,65,55,69,63,55,100,92,63,30.06,29.75,19,1,19,0.00
2013-9-22,73,64,50,70,60,48,100,86,56,29.86,29.64,9,0,20,0.37
2013-9-23,65,54,46,48,45,40,95,74,48,30.04,29.86,8,0,8,0.00
2013-9-24,67,53,43,49,45,42,97,75,43,30.04,29.85,11,0,11,0.00
2013-9-25,71,57,44,55,49,44,100,77,51,30.00,29.90,9,0,9,0.00
2013-9-26,65,58,51,53,50,46,100,78,53,30.14,30.00,7,0,7,0.00
2013-9-27,64,58,49,55,53,49,100,86,67,30.29,30.14,12,0,12,0.00
2013-9-28,72,59,48,58,52,48,100,82,48,30.35,30.28,11,0,11,0.00
2013-9-29,71,56,45,57,49,43,100,82,40,30.29,30.14,9,0,9,0.00
2013-9-30,69,57,48,55,51,44,100,82,40,30.14,29.98,11,0,11,0.00
2013-10-1,78,61,47,60,53,47,100,80,36,29.98,29.88,8,0,8,0.00
2013-10-2,81,68,56,63,60,55,100,78,52,29.99,29.87,16,0,16,0.00
2013-10-3,79,62,52,59,53,43,100,76,31,30.11,29.99,8,0,9,0.00
2013-10-4,67,57,50,60,56,50,100,97,64,30.11,30.07,7,0,7,0.08
2013-10-5,71,63,58,64,60,54,100,90,74,30.14,30.08,7,0,7,0.01
2013-10-6,61,59,57,60,58,56,100,97,83,30.23,30.13,6,0,9,0.05
2013-10-7,77,66,58,73,65,58,100,96,82,30.15,29.87,27,1,27,0.16
2013-10-8,66,57,48,58,48,38,95,73,38,30.39,29.94,11,0,11,0.00
2013-10-9,63,53,45,49,45,41,100,76,46,30.48,30.39,14,1,14,0.00
2013-10-10,65,55,47,56,52,47,100,91,71,30.39,30.18,10,1,10,0.00
2013-10-11,67,59,50,60,54,43,100,85,58,30.18,30.11,12,1,12,0.00
2013-10-12,66,57,51,58,54,47,100,88,71,30.39,30.16,17,2,17,0.00
2013-10-13,61,54,42,52,49,42,100,85,64,30.46,30.38,13,1,13,0.00
2013-10-14,65,46,36,50,42,36,100,89,44,30.44,30.29,6,0,6,0.00
2013-10-15,71,55,43,55,48,43,100,82,46,30.30,30.19,7,0,7,0.00
2013-10-16,62,55,46,58,53,46,100,96,85,30.20,29.94,8,0,8,0.00
2013-10-17,70,61,51,63,58,51,100,94,74,29.94,29.75,14,0,14,0.02
2013-10-18,69,61,47,64,52,44,100,76,43,29.95,29.65,17,0,17,0.00
2013-10-19,65,53,40,51,44,38,100,74,39,30.02,29.77,11,0,11,0.00
2013-10-20,64,54,40,55,42,30,100,69,30,30.07,29.73,14,0,14,0.00
2013-10-21,67,51,37,47,40,37,100,72,35,30.16,30.04,10,0,10,0.00
2013-10-22,70,54,43,56,48,43,100,84,42,30.04,29.74,14,1,14,0.00
2013-10-23,46,40,39,43,38,0,99,95,66,29.83,29.65,5,0,5,0.00
2013-10-24,54,45,38,36,31,21,90,60,31,29.94,29.69,14,1,14,0.00
2013-10-25,52,41,31,35,29,25,96,65,37,30.22,29.94,13,0,13,0.00
2013-10-26,56,44,29,40,33,25,100,69,32,30.22,29.92,22,2,22,0.00
2013-10-27,57,46,34,42,35,29,100,68,40,30.14,29.87,16,0,16,0.01
2013-10-28,60,44,30,38,32,26,100,68,34,30.40,30.13,20,1,20,0.00
2013-10-29,51,40,31,30,26,21,95,59,31,30.48,30.38,7,0,7,0.00
2013-10-30,57,44,31,46,40,29,100,88,59,30.42,30.23,11,0,11,0.00
2013-10-31,64,51,35,62,50,35,100,98,90,30.28,29.80,19,1,19,0.00
2013-11-1,69,64,60,66,61,56,100,90,72,29.84,29.53,30,4,30,0.00
2013-11-2,68,57,51,56,49,38,100,77,35,29.77,29.62,7,0,7,0.00
2013-11-3,53,43,33,48,33,15,93,68,43,30.45,29.74,11,0,11,0.00
2013-11-4,43,34,25,23,18,10,91,54,27,30.75,30.45,17,1,17,0.00
2013-11-5,50,36,24,35,28,22,99,76,41,30.76,30.56,6,0,6,0.00
2013-11-6,61,49,36,53,44,34,100,84,49,30.56,30.09,18,1,18,0.00
2013-11-7,66,54,39,62,53,32,100,95,74,30.09,29.70,21,1,21,0.01
2013-11-8,49,40,31,37,28,21,98,65,43,30.16,29.87,24,2,24,0.00
2013-11-9,45,38,30,32,26,20,84,63,38,30.27,30.08,12,0,12,0.00
2013-11-10,58,45,40,46,38,31,100,77,45,30.08,29.77,16,1,16,0.00
2013-11-11,52,46,37,38,30,25,67,54,35,30.16,29.93,19,2,19,0.00
2013-11-12,51,38,27,42,27,14,98,65,49,30.24,29.92,14,1,14,0.03
2013-11-13,38,29,24,17,14,8,70,53,32,30.33,30.24,10,1,10,0.00
2013-11-14,51,40,27,24,19,12,62,43,27,30.24,30.10,17,1,17,0.00
2013-11-15,61,48,37,38,24,10,100,45,21,30.25,30.17,17,1,17,0.00
2013-11-16,60,46,36,39,35,25,100,69,39,30.36,30.24,14,0,14,0.00
2013-11-17,59,48,35,58,48,35,100,97,77,30.34,29.86,2,0,2,0.09
2013-11-18,65,59,49,63,48,31,100,71,40,29.86,29.58,22,2,22,0.39
2013-11-19,48,41,32,32,23,17,59,49,36,30.31,29.70,16,2,16,0.00
2013-11-20,42,32,24,18,12,5,69,47,23,30.67,30.31,12,0,12,0.00
2013-11-21,47,36,22,36,21,14,79,58,30,30.68,30.42,11,0,11,0.00
2013-11-22,51,47,42,51,46,36,100,95,78,30.42,29.86,9,0,9,0.13
2013-11-23,50,41,30,49,26,12,100,58,27,29.95,29.84,20,3,20,0.00
2013-11-24,30,24,21,14,1,-10,54,37,19,30.27,29.87,30,5,30,0.00
2013-11-25,33,25,17,20,2,-13,65,38,16,30.43,30.26,13,1,13,0.00
2013-11-26,43,38,31,40,26,17,100,63,36,30.37,30.04,14,1,14,0.18
2013-11-27,62,52,36,62,51,32,100,99,86,30.04,29.24,22,3,22,2.20
2013-11-28,37,31,24,33,16,6,86,54,33,30.50,29.53,25,3,25,0.00
2013-11-29,36,28,22,16,12,4,63,51,35,30.78,30.50,7,0,8,0.00
2013-11-30,34,26,16,24,14,5,82,63,45,30.84,30.47,7,0,7,0.00
2013-12-1,43,36,30,43,35,24,100,94,79,30.47,30.04,3,0,3,0.18
2013-12-2,43,38,34,43,38,34,100,99,92,30.04,29.94,5,0,5,0.00
2013-12-3,50,40,34,40,35,32,100,86,54,30.00,29.87,10,0,10,0.01
2013-12-4,50,37,29,33,31,29,100,82,46,30.24,30.00,7,0,7,0.00
2013-12-5,55,44,32,55,44,32,100,98,93,30.23,29.96,11,0,11,0.00
2013-12-6,57,50,37,57,49,37,100,98,93,30.15,29.90,9,0,9,0.38
2013-12-7,40,34,28,37,30,21,100,83,55,30.51,30.11,11,1,11,0.14
2013-12-8,32,28,22,25,18,14,98,68,48,30.65,30.50,8,0,8,0.00
2013-12-9,39,34,27,39,33,17,100,98,60,30.53,29.93,11,1,11,0.28
2013-12-10,34,31,24,34,30,20,100,97,81,30.08,29.84,7,0,7,0.04
2013-12-11,30,26,22,22,19,16,93,75,66,30.30,30.08,20,2,20,0.00
2013-12-12,26,21,13,18,8,-2,79,57,32,30.33,30.13,14,1,14,0.00
2013-12-13,31,24,17,18,11,5,77,57,41,30.40,30.08,25,2,25,0.03
2013-12-14,28,19,14,28,8,-8,100,65,34,30.63,30.13,10,1,12,0.19
2013-12-15,38,32,28,38,28,20,100,88,68,30.13,29.41,14,2,14,0.43
2013-12-16,30,26,15,23,12,4,83,58,38,30.26,29.80,19,2,19,0.00
2013-12-17,23,16,8,20,12,3,91,81,66,30.32,29.96,9,1,9,0.09
2013-12-18,35,28,21,22,20,17,87,72,52,30.15,29.90,11,2,11,0.00
2013-12-19,45,36,27,30,24,19,73,61,47,30.18,30.01,14,2,21,0.00
2013-12-20,54,44,34,38,33,28,84,68,49,30.16,29.97,11,0,11,0.00
2013-12-21,61,51,44,54,47,37,100,85,65,30.03,29.92,17,0,17,0.00
2013-12-22,64,58,43,62,56,42,99,94,83,30.02,29.80,26,3,26,0.00
2013-12-23,43,39,35,42,39,35,100,100,95,30.11,29.98,11,0,11,0.52
2013-12-24,40,34,27,40,24,15,100,70,46,30.26,30.08,12,1,12,0.00
2013-12-25,27,21,17,16,5,-3,64,50,33,30.53,30.25,14,2,14,0.00
2013-12-26,38,29,18,34,23,9,90,78,69,30.55,30.13,11,1,11,0.01
2013-12-27,38,32,27,24,20,16,79,62,43,30.34,30.25,13,1,13,0.00
2013-12-28,49,37,27,31,25,21,85,63,38,30.28,30.05,25,2,25,0.00
2013-12-29,45,36,29,42,34,25,100,93,69,30.08,29.39,12,1,12,0.87
2013-12-30,40,33,19,38,24,9,100,74,36,30.19,29.55,14,2,14,0.00
2013-12-31,27,21,16,16,10,2,78,62,36,30.25,30.08,13,1,13,0.00
2014-1-1,33,24,16,15,8,3,74,50,34,30.43,30.25,20,1,20,0.00
2014-1-2,24,18,5,19,14,0,90,86,63,30.39,29.81,14,2,14,0.13